Regional Weather Roundup
Issued by NWS

Home | Current Version | Previous Version | Text Only | Print | Product List | Glossary On
Versions: 1 2 3 4 5 6 7 8 9 10 11 12 13 14 15 16 17 18 19 20 21 22 23 24 25 26 27 28 29 30 31 32 33 34 35 36 37 38 39 40 41 42 43 44 45 46 47 48 49 50
000
ASCA42 TJSJ 221610
RWRPR
PUERTO RICO/U.S. VIRGIN ISLANDS HOURLY WEATHER ROUNDUP
NATIONAL WEATHER SERVICE SAN JUAN PR
1200 PM AST SUN JAN 22 2017

PRZ001>002-007>008-010-221700-
PUERTO RICO

CITY           SKY/WX    TMP DP  RH WIND       PRES   REMARKS
SAN JUAN LMM   MOSUNNY   81  66  61 N8        30.02F
AGUADILLA      MOSUNNY   79  64  61 E10       30.04F
CEIBA          SUNNY     81  66  61 NE9       30.04F
$$

VIZ001>002-221700-
U.S. VIRGIN ISLANDS

CITY           SKY/WX    TMP DP  RH WIND       PRES   REMARKS
CHARLOTTE AMA  SUNNY     82  64  54 NE10      30.00F
CHRISTIANSTED  MOSUNNY   82  63  51 VRB6      30.01F
$$

HOURLY WEATHER ROUNDUP FOR THE NEWS MEDIA

CITY           SKY/WX    TMP DP  RH WIND       PRES   REMARKS
ORLANDO        CLOUDY    75  69  81 S13       29.72S
NEW YORK       CLOUDY    48  48 100 NE6       29.76R FOG
NEWARK         FOG       47  46  97 N8        29.74S VSB 1/4
CHICAGO        CLOUDY    42  39  89 N6        29.64R
HARTFORD       CLOUDY    50  42  74 NE6       29.78S
BOSTON         CLOUDY    46  42  86 NE12      29.82S
DALLAS         PTSUNNY   52  43  71 NW21      29.59R
PHILADELPHIA   CLOUDY    48  46  93 N6        29.74S FOG
LOS ANGELES    LGT RAIN  50  48  93 E12       30.10R
WASHINGTON DC  CLOUDY    47  45  93 N7        29.72F FOG


USA.gov is the U.S. government's official web portal to all federal, state and local government web resources and services.